Date String (YYYY-MM-DD hh:mm:ss) UTC,Instrument flags,Ambient pressure (hPa),Sample flow (lpm),Bypass flow (lpm),Sample temperature (°C),Ambient temperature (°C),ASC tube jacket temperature (°C),LED temperature (°C),Box temperature (°C),Sample RH (%),Span deviation,Mass concentration (μg/m³),Mass concentration (μg/m³),Mass concentration (μg/m³)
DateTimeUTC,F1_M11,P_M11,Q1_M11,Q2_M11,T1_M11,T2_M11,T3_M11,T4_M11,T5_M11,U1_M11,ZSPAN_M11,X0_M11,X2_M11,X1_M11
2023-02-27 09:00:00,,0811.2,4.99,0.00,21.8,21.3,00.0,30.4,23.5,09.1,0000.0,0000.96,0000.49,0000.30
2023-02-27 09:01:00,,0811.2,4.99,0.00,21.8,20.9,00.0,30.4,23.4,09.2,0000.0,0001.73,0000.47,0000.30
2023-02-27 09:02:00,,0811.1,5.01,0.00,21.7,20.5,00.0,30.4,23.3,09.2,0000.0,0001.89,0000.48,0000.31
2023-02-27 09:03:00,,0811.0,4.99,0.00,21.7,20.3,00.0,30.4,23.3,09.3,0000.0,0001.85,0000.46,0000.31
2023-02-27 09:04:00,,0811.1,5.00,0.00,21.7,20.1,00.0,30.4,23.3,09.6,0000.0,0001.77,0000.43,0000.31
2023-02-27 09:05:00,,0811.0,4.99,0.00,21.7,20.0,00.0,30.4,23.2,09.7,0000.0,0001.70,0000.40,0000.31
2023-02-27 09:06:00,,0811.0,5.00,0.00,21.6,20.0,00.0,30.4,23.2,09.2,0000.0,0001.78,0000.43,0000.31
2023-02-27 09:07:00,,0810.9,4.99,0.00,21.6,20.0,00.0,30.4,23.3,08.8,0000.0,0001.76,0000.42,0000.30
2023-02-27 09:08:00,,0810.9,5.00,0.00,21.6,19.9,00.0,30.4,23.3,08.9,0000.0,0001.71,0000.40,0000.29
2023-02-27 09:09:00,,0810.7,5.01,0.00,21.6,19.9,00.0,30.4,23.2,09.1,0000.0,0001.74,0000.41,0000.29
2023-02-27 09:10:00,,0810.7,5.00,0.00,21.6,19.8,00.0,30.4,23.1,09.0,0000.0,0001.78,0000.43,0000.30
2023-02-27 09:11:00,,0810.7,5.00,0.00,21.5,19.7,00.0,30.4,23.1,08.9,0000.0,0001.73,0000.43,0000.29
2023-02-27 09:12:00,,0810.8,5.00,0.00,21.5,19.7,00.0,30.4,23.1,09.2,0000.0,0000.91,0000.44,0000.29
2023-02-27 09:13:00,,0810.7,5.01,0.00,21.6,20.5,00.0,30.3,23.3,09.3,0000.0,0000.81,0000.45,0000.28
2023-02-27 09:14:00,,0810.6,4.97,0.00,21.7,22.0,00.0,30.3,23.6,09.4,0000.0,0000.89,0000.46,0000.28
2023-02-27 09:15:00,,0810.6,4.98,0.00,21.8,22.9,00.0,30.4,23.9,09.3,0000.0,0000.94,0000.46,0000.27
2023-02-27 09:16:00,,0810.6,4.99,0.00,21.9,22.4,00.0,30.4,23.9,08.9,0000.0,0001.01,0000.49,0000.27
2023-02-27 09:17:00,,0810.7,5.02,0.00,21.9,21.8,00.0,30.5,23.7,09.1,0000.0,0000.97,0000.47,0000.28
2023-02-27 09:18:00,,0810.7,5.00,0.00,21.9,21.3,00.0,30.5,23.6,09.1,0000.0,0001.01,0000.46,0000.28
2023-02-27 09:19:00,,0810.7,5.00,0.00,21.8,20.9,00.0,30.5,23.5,08.9,0000.0,0001.05,0000.48,0000.29
2023-02-27 09:20:00,,0810.8,5.00,0.00,21.8,20.6,00.0,30.5,23.4,09.0,0000.0,0001.04,0000.47,0000.29
2023-02-27 09:21:00,,0810.8,4.99,0.00,21.8,20.3,00.0,30.5,23.3,09.1,0000.0,0001.03,0000.47,0000.29
2023-02-27 09:22:00,,0811.0,4.98,0.00,21.7,20.1,00.0,30.5,23.3,08.9,0000.0,0001.72,0000.49,0000.30
2023-02-27 09:23:00,,0811.0,5.00,0.00,21.7,19.9,00.0,30.5,23.2,08.8,0000.0,0002.67,0000.48,0000.30
2023-02-27 09:24:00,,0811.0,5.02,0.00,21.6,19.8,00.0,30.5,23.2,08.9,0000.0,0002.70,0000.49,0000.31
2023-02-27 09:25:00,,0811.1,4.97,0.00,21.6,19.7,00.0,30.5,23.1,08.9,0000.0,0002.63,0000.49,0000.32
2023-02-27 09:26:00,,0811.1,5.00,0.00,21.6,19.6,00.0,30.4,23.1,08.7,0000.0,0002.62,0000.50,0000.32
2023-02-27 09:27:00,,0811.1,5.00,0.00,21.5,19.6,00.0,30.4,23.1,08.4,0000.0,0002.59,0000.49,0000.32
2023-02-27 09:28:00,,0811.2,5.01,0.00,21.5,19.5,00.0,30.4,23.1,08.5,0000.0,0002.60,0000.50,0000.31
2023-02-27 09:29:00,,0811.2,5.00,0.00,21.5,19.5,00.0,30.4,23.1,08.6,0000.0,0002.51,0000.50,0000.31
2023-02-27 09:30:00,,0811.2,5.00,0.00,21.5,19.7,00.0,30.4,23.0,08.8,0000.0,0002.48,0000.49,0000.31
2023-02-27 09:31:00,,0811.2,4.99,0.00,21.5,21.0,00.0,30.3,23.3,08.7,0000.0,0002.52,0000.50,0000.31
2023-02-27 09:32:00,,0811.1,5.02,0.00,21.7,22.2,00.0,30.3,23.6,08.5,0000.0,0002.49,0000.49,0000.30
2023-02-27 09:33:00,,0811.1,5.03,0.00,21.8,22.6,00.0,30.4,23.8,08.5,0000.0,0001.76,0000.48,0000.30
2023-02-27 09:34:00,,0811.1,4.98,0.00,21.8,22.0,00.0,30.4,23.7,08.4,0000.0,0000.85,0000.49,0000.30
2023-02-27 09:35:00,,0811.1,5.00,0.00,21.8,21.4,00.0,30.5,23.6,08.1,0000.0,0000.81,0000.47,0000.30
2023-02-27 09:36:00,,0811.2,4.99,0.00,21.8,21.0,00.0,30.5,23.5,08.3,0000.0,0000.78,0000.46,0000.29
2023-02-27 09:37:00,,0811.2,5.00,0.00,21.8,20.7,00.0,30.5,23.4,08.1,0000.0,0000.75,0000.45,0000.29
2023-02-27 09:38:00,,0811.2,5.00,0.00,21.7,20.5,00.0,30.5,23.4,08.3,0000.0,0000.74,0000.46,0000.30
2023-02-27 09:39:00,,0811.2,5.00,0.00,21.7,20.3,00.0,30.5,23.3,08.3,0000.0,0000.71,0000.44,0000.30
2023-02-27 09:40:00,,0811.2,5.00,0.00,21.7,20.1,00.0,30.5,23.3,07.7,0000.0,0000.99,0000.45,0000.29
2023-02-27 09:41:00,,0811.0,5.00,0.00,21.7,20.0,00.0,30.5,23.2,07.7,0000.0,0001.05,0000.46,0000.30
2023-02-27 09:42:00,,0811.0,5.00,0.00,21.7,19.9,00.0,30.5,23.2,08.0,0000.0,0001.04,0000.46,0000.30
2023-02-27 09:43:00,,0811.1,5.01,0.00,21.6,19.8,00.0,30.4,23.1,07.8,0000.0,0001.11,0000.46,0000.30
2023-02-27 09:44:00,,0811.0,5.00,0.00,21.6,19.7,00.0,30.4,23.1,07.8,0000.0,0001.13,0000.47,0000.29
2023-02-27 09:45:00,,0811.1,5.04,0.00,21.5,19.6,00.0,30.4,23.1,07.9,0000.0,0001.11,0000.46,0000.29
2023-02-27 09:46:00,,0811.1,5.00,0.00,21.5,19.7,00.0,30.4,23.1,07.9,0000.0,0001.07,0000.44,0000.28
2023-02-27 09:47:00,,0811.2,5.03,0.00,21.6,21.1,00.0,30.3,23.4,07.7,0000.0,0001.08,0000.44,0000.28
2023-02-27 09:48:00,,0811.2,4.99,0.00,21.7,22.4,00.0,30.4,23.7,07.4,0000.0,0001.10,0000.44,0000.28
2023-02-27 09:49:00,,0811.3,5.03,0.00,21.9,22.8,00.0,30.4,23.9,07.5,0000.0,0001.05,0000.41,0000.27
2023-02-27 09:50:00,,0811.3,4.97,0.00,21.9,22.3,00.0,30.5,23.9,07.5,0000.0,0001.12,0000.44,0000.28
2023-02-27 09:51:00,,0811.4,4.99,0.00,21.9,21.7,00.0,30.5,23.8,07.7,0000.0,0001.01,0000.47,0000.28
2023-02-27 09:52:00,,0811.5,4.99,0.00,21.9,21.3,00.0,30.5,23.7,07.7,0000.0,0001.20,0000.51,0000.27
2023-02-27 09:53:00,,0811.5,5.01,0.00,21.9,20.9,00.0,30.5,23.6,08.1,0000.0,0001.19,0000.50,0000.27
2023-02-27 09:54:00,,0811.6,4.99,0.00,21.9,20.7,00.0,30.6,23.5,08.5,0000.0,0001.14,0000.51,0000.27
2023-02-27 09:55:00,,0811.6,4.99,0.00,21.9,20.5,00.0,30.6,23.5,08.6,0000.0,0001.24,0000.54,0000.28
2023-02-27 09:56:00,,0811.6,4.99,0.00,21.8,20.3,00.0,30.6,23.4,08.5,0000.0,0001.33,0000.55,0000.29
2023-02-27 09:57:00,,0811.6,5.01,0.00,21.8,20.2,00.0,30.6,23.4,08.8,0000.0,0001.48,0000.58,0000.30
2023-02-27 09:58:00,,0811.6,5.01,0.00,21.8,20.0,00.0,30.5,23.4,09.0,0000.0,0001.58,0000.59,0000.30
2023-02-27 09:59:00,,0811.6,5.00,0.00,21.8,20.0,00.0,30.5,23.4,08.8,0000.0,0002.54,0000.61,0000.31
